Date String (YYYY-MM-DD hh:mm:ss) UTC,Instrument flags,Ambient pressure (hPa),Sample flow (lpm),Bypass flow (lpm),Sample temperature (°C),Ambient temperature (°C),ASC tube jacket temperature (°C),LED temperature (°C),Box temperature (°C),Sample RH (%),Span deviation,Mass concentration (μg/m³),Mass concentration (μg/m³),Mass concentration (μg/m³)
DateTimeUTC,F1_M11,P_M11,Q1_M11,Q2_M11,T1_M11,T2_M11,T3_M11,T4_M11,T5_M11,U1_M11,ZSPAN_M11,X0_M11,X2_M11,X1_M11
2022-04-24 00:00:00,,0818.4,5.00,0.00,23.6,22.7,00.0,32.5,25.3,09.6,0000.0,0002.05,0000.47,0000.34
2022-04-24 00:01:00,,0818.4,4.99,0.00,23.6,22.7,00.0,32.5,25.3,09.6,0000.0,0001.16,0000.48,0000.33
2022-04-24 00:02:00,,0818.4,5.00,0.00,23.6,22.7,00.0,32.5,25.3,09.6,0000.0,0000.90,0000.49,0000.32
2022-04-24 00:03:00,,0818.4,5.01,0.00,23.6,22.7,00.0,32.5,25.4,09.4,0000.0,0000.95,0000.50,0000.32
2022-04-24 00:04:00,,0818.4,5.00,0.00,23.6,22.7,00.0,32.5,25.4,09.4,0000.0,0000.99,0000.51,0000.32
2022-04-24 00:05:00,,0818.4,4.99,0.00,23.6,22.7,00.0,32.5,25.4,09.6,0000.0,0001.08,0000.55,0000.32
2022-04-24 00:06:00,,0818.4,4.99,0.00,23.6,22.7,00.0,32.5,25.5,09.4,0000.0,0001.14,0000.56,0000.31
2022-04-24 00:07:00,,0818.4,5.02,0.00,23.6,22.7,00.0,32.5,25.4,09.3,0000.0,0001.06,0000.54,0000.31
2022-04-24 00:08:00,,0818.4,4.99,0.00,23.6,22.7,00.0,32.5,25.3,09.5,0000.0,0001.01,0000.52,0000.31
2022-04-24 00:09:00,,0818.5,4.99,0.00,23.6,22.7,00.0,32.6,25.4,09.5,0000.0,0001.50,0000.51,0000.30
2022-04-24 00:10:00,,0818.5,5.00,0.00,23.6,22.7,00.0,32.6,25.4,09.3,0000.0,0001.61,0000.52,0000.30
2022-04-24 00:11:00,,0818.6,5.00,0.00,23.7,22.7,00.0,32.6,25.4,09.4,0000.0,0001.62,0000.53,0000.30
2022-04-24 00:12:00,,0818.5,5.00,0.00,23.7,22.7,00.0,32.6,25.4,09.7,0000.0,0001.57,0000.51,0000.31
2022-04-24 00:13:00,,0818.5,5.01,0.00,23.7,22.7,00.0,32.6,25.4,09.7,0000.0,0001.59,0000.51,0000.31
2022-04-24 00:14:00,,0818.6,5.00,0.00,23.7,22.7,00.0,32.6,25.5,09.9,0000.0,0001.81,0000.53,0000.32
2022-04-24 00:15:00,,0818.5,5.00,0.00,23.7,22.7,00.0,32.6,25.4,09.8,0000.0,0001.81,0000.54,0000.32
2022-04-24 00:16:00,,0818.5,5.01,0.00,23.7,22.7,00.0,32.6,25.4,09.9,0000.0,0001.76,0000.53,0000.32
2022-04-24 00:17:00,,0818.4,5.00,0.00,23.7,22.7,00.0,32.6,25.3,09.9,0000.0,0001.72,0000.52,0000.33
2022-04-24 00:18:00,,0818.4,4.99,0.00,23.7,22.7,00.0,32.6,25.4,09.8,0000.0,0001.63,0000.49,0000.32
2022-04-24 00:19:00,,0818.4,5.00,0.00,23.7,22.7,00.0,32.6,25.5,09.8,0000.0,0001.64,0000.50,0000.33
2022-04-24 00:20:00,,0818.4,5.01,0.00,23.7,22.7,00.0,32.6,25.5,10.0,0000.0,0001.05,0000.49,0000.34
2022-04-24 00:21:00,,0818.4,4.99,0.00,23.7,22.7,00.0,32.6,25.4,10.1,0000.0,0001.00,0000.48,0000.34
2022-04-24 00:22:00,,0818.3,4.99,0.00,23.7,22.7,00.0,32.6,25.4,10.1,0000.0,0001.03,0000.49,0000.35
2022-04-24 00:23:00,,0818.4,5.02,0.00,23.7,22.7,00.0,32.6,25.5,09.9,0000.0,0001.02,0000.49,0000.35
2022-04-24 00:24:00,,0818.4,4.99,0.00,23.7,22.7,00.0,32.6,25.5,09.9,0000.0,0001.02,0000.49,0000.35
2022-04-24 00:25:00,,0818.2,5.00,0.00,23.6,22.7,00.0,32.6,25.5,10.0,0000.0,0001.49,0000.48,0000.35
2022-04-24 00:26:00,,0818.2,5.01,0.00,23.6,22.7,00.0,32.6,25.5,09.9,0000.0,0001.61,0000.47,0000.36
2022-04-24 00:27:00,,0818.3,4.99,0.00,23.6,22.7,00.0,32.6,25.5,10.0,0000.0,0001.56,0000.46,0000.37
2022-04-24 00:28:00,,0818.3,5.00,0.00,23.6,22.7,00.0,32.6,25.4,10.1,0000.0,0001.71,0000.51,0000.38
2022-04-24 00:29:00,,0818.4,5.01,0.00,23.6,22.6,00.0,32.6,25.4,10.2,0000.0,0001.77,0000.54,0000.38
2022-04-24 00:30:00,,0818.4,5.00,0.00,23.6,22.6,00.0,32.6,25.5,10.3,0000.0,0001.90,0000.56,0000.39
2022-04-24 00:31:00,,0818.5,4.99,0.00,23.6,22.6,00.0,32.6,25.4,10.3,0000.0,0001.93,0000.56,0000.39
2022-04-24 00:32:00,,0818.5,5.01,0.00,23.6,22.6,00.0,32.6,25.3,10.4,0000.0,0002.01,0000.58,0000.40
2022-04-24 00:33:00,,0818.7,4.99,0.00,23.6,22.6,00.0,32.6,25.4,10.4,0000.0,0002.26,0000.62,0000.41
2022-04-24 00:34:00,,0818.7,4.99,0.00,23.6,22.6,00.0,32.6,25.4,10.4,0000.0,0002.95,0000.64,0000.41
2022-04-24 00:35:00,,0818.7,5.00,0.00,23.6,22.6,00.0,32.6,25.4,10.5,0000.0,0003.05,0000.65,0000.43
2022-04-24 00:36:00,,0818.7,5.00,0.00,23.6,22.6,00.0,32.6,25.4,10.4,0000.0,0002.51,0000.65,0000.44
2022-04-24 00:37:00,,0818.8,5.00,0.00,23.6,22.6,00.0,32.6,25.4,10.3,0000.0,0002.19,0000.64,0000.44
2022-04-24 00:38:00,,0818.6,5.00,0.00,23.6,22.6,00.0,32.5,25.4,10.3,0000.0,0002.19,0000.64,0000.45
2022-04-24 00:39:00,,0818.6,5.00,0.00,23.6,22.6,00.0,32.5,25.3,10.3,0000.0,0002.28,0000.58,0000.44
2022-04-24 00:40:00,,0818.8,5.00,0.00,23.6,22.6,00.0,32.5,25.3,10.4,0000.0,0003.31,0000.57,0000.45
2022-04-24 00:41:00,,0818.8,4.99,0.00,23.5,22.6,00.0,32.5,25.3,10.3,0000.0,0003.21,0000.58,0000.46
2022-04-24 00:42:00,,0818.8,4.99,0.00,23.5,22.6,00.0,32.5,25.3,10.4,0000.0,0003.22,0000.60,0000.46
2022-04-24 00:43:00,,0818.8,5.01,0.00,23.5,22.6,00.0,32.5,25.2,10.4,0000.0,0003.15,0000.59,0000.47
2022-04-24 00:44:00,,0818.9,5.01,0.00,23.5,22.6,00.0,32.5,25.2,10.4,0000.0,0002.98,0000.55,0000.47
2022-04-24 00:45:00,,0818.9,5.00,0.00,23.5,22.6,00.0,32.5,25.2,10.5,0000.0,0002.17,0000.54,0000.47
2022-04-24 00:46:00,,0818.8,4.99,0.00,23.5,22.5,00.0,32.5,25.2,10.5,0000.0,0002.58,0000.53,0000.47
2022-04-24 00:47:00,,0818.8,5.01,0.00,23.5,22.6,00.0,32.5,25.2,10.4,0000.0,0002.63,0000.53,0000.46
2022-04-24 00:48:00,,0818.7,5.01,0.00,23.5,22.5,00.0,32.5,25.3,10.4,0000.0,0003.04,0000.55,0000.46
2022-04-24 00:49:00,,0818.7,5.00,0.00,23.5,22.5,00.0,32.5,25.3,10.3,0000.0,0003.57,0000.54,0000.45
2022-04-24 00:50:00,,0818.8,4.99,0.00,23.5,22.5,00.0,32.5,25.3,10.3,0000.0,0003.57,0000.54,0000.45
2022-04-24 00:51:00,,0818.7,5.01,0.00,23.5,22.5,00.0,32.5,25.2,10.3,0000.0,0002.25,0000.54,0000.44
2022-04-24 00:52:00,,0818.9,5.00,0.00,23.5,22.5,00.0,32.5,25.2,10.4,0000.0,0002.22,0000.53,0000.43
2022-04-24 00:53:00,,0818.7,4.98,0.00,23.5,22.5,00.0,32.5,25.2,10.4,0000.0,0002.25,0000.50,0000.42
2022-04-24 00:54:00,,0818.9,4.99,0.00,23.5,22.4,00.0,32.5,25.2,10.2,0000.0,0002.48,0000.49,0000.41
2022-04-24 00:55:00,,0818.9,5.01,0.00,23.4,22.4,00.0,32.5,25.2,10.3,0000.0,0002.61,0000.53,0000.41
2022-04-24 00:56:00,,0818.8,5.01,0.00,23.4,22.5,00.0,32.5,25.2,10.4,0000.0,0002.61,0000.53,0000.40
2022-04-24 00:57:00,,0818.8,4.99,0.00,23.4,22.5,00.0,32.5,25.2,10.3,0000.0,0003.56,0000.54,0000.39
2022-04-24 00:58:00,,0818.9,5.00,0.00,23.4,22.5,00.0,32.5,25.1,10.4,0000.0,0003.44,0000.56,0000.39
2022-04-24 00:59:00,,0818.9,4.99,0.00,23.4,22.5,00.0,32.4,25.1,10.4,0000.0,0003.21,0000.56,0000.39
